^^
Datos históricos de la estación: Murcia-Puente Tocinos
Diario Informe para Septiembre 25, 2019 Unidades:  Métrico    Ingés   Ambas
Diario Semanal Mensual Anual
  Máxima: Mínima: Promedio:
Temperatura: 24 °C 11.7 °C 17.5 °C
Punto de rocio: 12.7 °C 5.7 °C 10.2 °C
Humedad: 91% 32.9% 65%
Velocidad viento: 24.5km/h 0km/h 7.9km/h
Racha viento: 45.1km/h - -
Viento- - OSO
Presión: 1016.9 hPa 1009.3 hPa -
Precipitación: 0.0 mm    
 
 
Tabla de datos para Septiembre 25, 2019
Hora Temperatura Punto de rocio Presión Viento Velocidad viento Racha viento Humedad Intensidad lluvia(por hora) Nubes
00:04 15.2 °C 10.6 °C 1010.1 hPa NO 6.9 km/h 9.7 km/h 74% 0.0 mm
00:09 15.2 °C 10.6 °C 1010.1 hPa NO 6 km/h 8 km/h 74.1% 0.0 mm
00:14 15.2 °C 10.7 °C 1010.1 hPa ONO 3.2 km/h 13.7 km/h 75% 0.0 mm
00:19 15 °C 10.8 °C 1010.2 hPa NNO 4.6 km/h 14.5 km/h 75.9% 0.0 mm
00:24 14.9 °C 10.8 °C 1010.2 hPa NNO 6.9 km/h 12.9 km/h 76.2% 0.0 mm
00:29 14.9 °C 10.9 °C 1010.2 hPa NNO 5.8 km/h 8 km/h 77% 0.0 mm
00:34 14.9 °C 10.9 °C 1010.4 hPa NNO 3.9 km/h 8 km/h 77% 0.0 mm
00:39 14.8 °C 10.9 °C 1010.4 hPa NO 3.6 km/h 8 km/h 77.2% 0.0 mm
00:44 14.8 °C 11 °C 1010.4 hPa NE 3.2 km/h 8 km/h 78% 0.0 mm
00:49 14.8 °C 10.9 °C 1010.5 hPa Este 3.2 km/h 11.1 km/h 78% 0.0 mm
00:54 14.6 °C 10.9 °C 1010.5 hPa ESE 3.2 km/h 11.3 km/h 78.4% 0.0 mm
00:59 14.3 °C 10.8 °C 1010.5 hPa ESE 4.1 km/h 9.7 km/h 79.5% 0.0 mm
01:04 14.2 °C 11 °C 1010.5 hPa ESE 5 km/h 10 km/h 80.9% 0.0 mm
01:09 14 °C 10.8 °C 1010.4 hPa Este 5.5 km/h 10 km/h 81% 0.0 mm
01:14 13.8 °C 10.7 °C 1010.4 hPa ENE 6.5 km/h 9.7 km/h 81.6% 0.0 mm
01:19 13.8 °C 10.8 °C 1010.4 hPa ESE 5.2 km/h 8 km/h 82% 0.0 mm
01:24 13.8 °C 10.8 °C 1010.4 hPa ESE 2.9 km/h 8 km/h 82% 0.0 mm
01:29 13.9 °C 10.9 °C 1010.4 hPa ESE 1.8 km/h 3.2 km/h 82% 0.0 mm
01:34 14 °C 10.9 °C 1010.4 hPa Calm   7.4 km/h 81.2% 0.0 mm
01:39 14.1 °C 10.9 °C 1010.4 hPa NNE 1.3 km/h 8 km/h 81% 0.0 mm
01:44 14.1 °C 10.8 °C 1010.4 hPa NE 3.2 km/h 8 km/h 81% 0.0 mm
01:49 13.8 °C 10.7 °C 1010.4 hPa NE 3.8 km/h 9.3 km/h 81.1% 0.0 mm
01:54 13.7 °C 10.7 °C 1010.3 hPa NNE 4.7 km/h 10 km/h 82% 0.0 mm
01:59 13.5 °C 10.6 °C 1010.3 hPa NNE 4.7 km/h 9.7 km/h 82.9% 0.0 mm
02:04 13.3 °C 10.6 °C 1010.3 hPa North 4.6 km/h 9.7 km/h 84% 0.0 mm
02:09 13.2 °C 10.6 °C 1010.3 hPa NNO 4.7 km/h 8 km/h 84.5% 0.0 mm
02:14 13.1 °C 10.6 °C 1010.3 hPa NNO 4.6 km/h 6.4 km/h 85% 0.0 mm
02:19 13.1 °C 10.7 °C 1010.4 hPa NNO 3.8 km/h 5.6 km/h 85.3% 0.0 mm
02:24 13.1 °C 10.8 °C 1010.4 hPa NNO 2.2 km/h 4.8 km/h 86% 0.0 mm
02:29 13.1 °C 10.8 °C 1010.4 hPa NNO 1.4 km/h 5.6 km/h 86% 0.0 mm
02:34 13.2 °C 10.9 °C 1010.5 hPa Calm   6.4 km/h 86% 0.0 mm
02:39 13.2 °C 10.9 °C 1010.5 hPa Oeste 1.1 km/h 8 km/h 86% 0.0 mm
02:44 13.2 °C 10.9 °C 1010.5 hPa Oeste 2.9 km/h 8 km/h 86% 0.0 mm
02:49 13.2 °C 10.9 °C 1010.5 hPa Oeste 2.7 km/h 6.4 km/h 86% 0.0 mm
02:54 13.3 °C 11 °C 1010.5 hPa OSO 2.2 km/h 6.9 km/h 86% 0.0 mm
02:59 13.4 °C 11 °C 1010.5 hPa ESE 3 km/h 11.1 km/h 85.5% 0.0 mm
03:04 13.3 °C 10.9 °C 1010.5 hPa Este 3.9 km/h 11.3 km/h 85% 0.0 mm
03:09 13.2 °C 10.8 °C 1010.2 hPa Este 4.3 km/h 9.7 km/h 85.1% 0.0 mm
03:14 13.2 °C 10.9 °C 1010.2 hPa Este 5 km/h 9.5 km/h 86% 0.0 mm
03:19 13.1 °C 10.8 °C 1010.2 hPa Este 4.9 km/h 9.7 km/h 86% 0.0 mm
03:24 13.1 °C 10.8 °C 1010.0 hPa Este 4.6 km/h 8 km/h 86% 0.0 mm
03:29 13.1 °C 10.8 °C 1010.0 hPa Este 2.8 km/h 5.8 km/h 86% 0.0 mm
03:34 13 °C 10.8 °C 1010.0 hPa Calm   6.4 km/h 86% 0.0 mm
03:39 12.9 °C 10.6 °C 1010.0 hPa NE 1 km/h 6.4 km/h 86% 0.0 mm
03:44 12.8 °C 10.5 °C 1009.8 hPa NNE 2.9 km/h 8.4 km/h 86% 0.0 mm
03:49 12.7 °C 10.6 °C 1009.8 hPa NNO 3.7 km/h 8 km/h 86.9% 0.0 mm
03:54 12.7 °C 10.6 °C 1009.8 hPa NO 5 km/h 11.1 km/h 87% 0.0 mm
03:59 12.5 °C 10.6 °C 1009.8 hPa NO 5.5 km/h 11.3 km/h 87.9% 0.0 mm
04:04 12.5 °C 10.6 °C 1009.9 hPa ONO 5.8 km/h 9.7 km/h 88% 0.0 mm
04:09 12.6 °C 10.7 °C 1009.9 hPa ONO 5.4 km/h 9.5 km/h 88.4% 0.0 mm
04:14 12.6 °C 10.8 °C 1009.9 hPa Oeste 5 km/h 9.7 km/h 89% 0.0 mm
04:19 12.6 °C 10.8 °C 1010.0 hPa Oeste 3 km/h 3.2 km/h 88.5% 0.0 mm
04:24 12.7 °C 10.8 °C 1010.0 hPa Calm   8.4 km/h 88% 0.0 mm
04:29 12.7 °C 10.8 °C 1010.0 hPa SE 1.5 km/h 9.3 km/h 88% 0.0 mm
04:34 12.6 °C 10.6 °C 1010.0 hPa SE 4.6 km/h 9.7 km/h 87.6% 0.0 mm
04:39 12.4 °C 10.5 °C 1009.9 hPa Sur 4.8 km/h 9.3 km/h 88% 0.0 mm
04:44 12.4 °C 10.5 °C 1009.8 hPa Sur 5 km/h 9.7 km/h 88.1% 0.0 mm
04:49 12.4 °C 10.6 °C 1009.8 hPa Sur 3.1 km/h 5.8 km/h 89% 0.0 mm
04:54 12.5 °C 10.8 °C 1009.7 hPa Calm   6.9 km/h 89% 0.0 mm
04:59 12.6 °C 10.7 °C 1009.7 hPa Calm   7.4 km/h 88.3% 0.0 mm
05:04 12.7 °C 10.7 °C 1009.7 hPa SSO 4.6 km/h 8 km/h 88% 0.0 mm
05:09 12.7 °C 10.8 °C 1009.6 hPa SSO 4 km/h 8 km/h 88% 0.0 mm
05:14 12.7 °C 10.8 °C 1009.6 hPa ONO 2.9 km/h 7.4 km/h 88% 0.0 mm
05:19 12.6 °C 10.7 °C 1009.6 hPa NO 2.9 km/h 10 km/h 88% 0.0 mm
05:24 12.4 °C 10.5 °C 1009.6 hPa NNO 2.9 km/h 11.9 km/h 88% 0.0 mm
05:29 12.3 °C 10.5 °C 1009.6 hPa NNO 4 km/h 11.3 km/h 88.9% 0.0 mm
05:34 12.3 °C 10.6 °C 1009.8 hPa NNO 5.8 km/h 9.7 km/h 89% 0.0 mm
05:39 12.3 °C 10.7 °C 1009.8 hPa NNO 3.7 km/h 4.7 km/h 89.6% 0.0 mm
05:44 12.3 °C 10.6 °C 1009.8 hPa Calm   5 km/h 89.3% 0.0 mm
05:49 12.3 °C 10.7 °C 1009.8 hPa ESE 1.1 km/h 11.1 km/h 89.7% 0.0 mm
05:54 12.3 °C 10.5 °C 1009.6 hPa Este 2.9 km/h 11.9 km/h 89% 0.0 mm
05:59 12.2 °C 10.4 °C 1009.6 hPa Este 3.9 km/h 11.3 km/h 89% 0.0 mm
06:04 12.2 °C 10.4 °C 1009.6 hPa NE 5 km/h 7.4 km/h 89% 0.0 mm
06:09 12.1 °C 10.5 °C 1009.6 hPa ENE 4 km/h 8 km/h 89.8% 0.0 mm
06:14 12.1 °C 10.5 °C 1009.6 hPa ENE 2.2 km/h 6.4 km/h 90% 0.0 mm
06:19 12.2 °C 10.6 °C 1009.7 hPa NNO 2.2 km/h 7.4 km/h 90% 0.0 mm
06:24 12.2 °C 10.6 °C 1009.7 hPa ONO 2.2 km/h 8 km/h 90% 0.0 mm
06:29 12.2 °C 10.6 °C 1009.7 hPa NO 2.5 km/h 8 km/h 89.8% 0.0 mm
06:34 12.2 °C 10.4 °C 1009.7 hPa NE 2.9 km/h 8 km/h 89% 0.0 mm
06:39 12 °C 10.3 °C 1009.4 hPa North 2.9 km/h 7.4 km/h 89% 0.0 mm
06:44 11.9 °C 10.2 °C 1009.4 hPa North 2.9 km/h 8 km/h 89% 0.0 mm
06:49 11.8 °C 10.2 °C 1009.4 hPa NNE 3 km/h 7.6 km/h 90% 0.0 mm
06:54 11.8 °C 10.2 °C 1009.3 hPa North 3.2 km/h 8.7 km/h 90% 0.0 mm
06:59 11.7 °C 10.2 °C 1009.3 hPa ONO 3.9 km/h 9.7 km/h 90% 0.0 mm
07:04 11.7 °C 10.2 °C 1009.6 hPa ONO 4.6 km/h 9.7 km/h 90.4% 0.0 mm
07:09 11.7 °C 10.3 °C 1009.6 hPa Oeste 4.1 km/h 9.7 km/h 91% 0.0 mm
07:14 11.7 °C 10.3 °C 1009.6 hPa OSO 3.2 km/h 8 km/h 91% 0.0 mm
07:19 11.8 °C 10.4 °C 1009.6 hPa Sur 3.5 km/h 8 km/h 91% 0.0 mm
07:24 11.9 °C 10.5 °C 1009.6 hPa OSO 3.9 km/h 9.5 km/h 90.9% 0.0 mm
07:29 12 °C 10.4 °C 1009.6 hPa Oeste 3.9 km/h 9.7 km/h 90% 0.0 mm
07:34 12 °C 10.4 °C 1009.9 hPa ONO 3.9 km/h 9.3 km/h 90% 0.0 mm
07:39 11.9 °C 10.2 °C 1009.9 hPa Este 3.6 km/h 9.7 km/h 89.1% 0.0 mm
07:44 11.9 °C 10.3 °C 1009.9 hPa Este 3.2 km/h 5.8 km/h 90% 0.0 mm
07:49 11.9 °C 10.2 °C 1010.1 hPa NNO 3.1 km/h 8.4 km/h 89.5% 0.0 mm
07:54 11.8 °C 10.2 °C 1010.1 hPa North 2.9 km/h 8 km/h 89.8% 0.0 mm
07:59 11.8 °C 10.4 °C 1010.1 hPa Este 3.3 km/h 8 km/h 90.4% 0.0 mm
08:04 11.9 °C 10.5 °C 1010.3 hPa Este 3.9 km/h 8 km/h 91% 0.0 mm
08:09 12.1 °C 10.5 °C 1010.3 hPa NE 3.5 km/h 5.8 km/h 90.5% 0.0 mm
08:14 12.2 °C 10.6 °C 1010.3 hPa NO 2.9 km/h 6.4 km/h 90% 0.0 mm
08:19 12.4 °C 10.8 °C 1010.3 hPa NO 1.8 km/h 4.8 km/h 90% 0.0 mm
08:24 12.6 °C 11 °C 1010.3 hPa Calm   3.2 km/h 89.8% 0.0 mm
08:29 12.8 °C 11 °C 1010.3 hPa Calm     88.7% 0.0 mm
08:34 13.1 °C 11.2 °C 1010.4 hPa Calm     87.9% 0.0 mm
08:39 13.4 °C 11.2 °C 1010.4 hPa Calm   7.6 km/h 86.3% 0.0 mm
08:44 13.6 °C 11.1 °C 1010.4 hPa Calm   8 km/h 85% 0.0 mm
08:49 13.6 °C 11.1 °C 1010.4 hPa NNO 1.1 km/h 6.4 km/h 85% 0.0 mm
08:54 13.7 °C 11.2 °C 1010.3 hPa NO 2.9 km/h 7.6 km/h 84.9% 0.0 mm
08:59 13.7 °C 11.1 °C 1010.3 hPa Oeste 3.7 km/h 8.4 km/h 84% 0.0 mm
09:04 13.8 °C 11.1 °C 1010.5 hPa Oeste 4.6 km/h 8 km/h 83.5% 0.0 mm
09:09 13.9 °C 11.1 °C 1010.5 hPa Oeste 4.4 km/h 8 km/h 83% 0.0 mm
09:14 14.2 °C 11.3 °C 1010.5 hPa ONO 3.9 km/h 7.4 km/h 83.1% 0.0 mm
09:19 14.4 °C 11.6 °C 1010.6 hPa NNE 3.6 km/h 8 km/h 83.2% 0.0 mm
09:24 14.7 °C 11.8 °C 1010.6 hPa NNE 3.2 km/h 8 km/h 82.7% 0.0 mm
09:29 14.8 °C 11.8 °C 1010.6 hPa North 3.1 km/h 8 km/h 82% 0.0 mm
09:34 15.1 °C 11.8 °C 1010.6 hPa NNO 2.9 km/h 8 km/h 81% 0.0 mm
09:39 15.3 °C 11.8 °C 1010.6 hPa NNO 2.7 km/h 6.4 km/h 79.7% 0.0 mm
09:44 15.5 °C 11.7 °C 1010.6 hPa NNO 2.2 km/h 4.8 km/h 77.9% 0.0 mm
09:49 15.7 °C 11.2 °C 1010.6 hPa NNO 1.4 km/h 5.6 km/h 74.6% 0.0 mm
09:54 15.8 °C 11 °C 1010.6 hPa Calm   5 km/h 73.3% 0.0 mm
09:59 16.1 °C 10.9 °C 1010.6 hPa Este 1.1 km/h 5.6 km/h 71.4% 0.0 mm
10:04 16.3 °C 10.8 °C 1010.6 hPa NE 2.2 km/h 6.4 km/h 69.9% 0.0 mm
10:09 16.5 °C 10.9 °C 1010.4 hPa NE 2.2 km/h 8 km/h 69.9% 0.0 mm
10:14 16.7 °C 11.3 °C 1010.4 hPa NNE 2.2 km/h 9.5 km/h 70.4% 0.0 mm
10:19 16.8 °C 11.5 °C 1010.4 hPa NE 3.3 km/h 9.7 km/h 70.8% 0.0 mm
10:24 16.8 °C 11.3 °C 1010.4 hPa NNE 5 km/h 9.7 km/h 70% 0.0 mm
10:29 16.9 °C 11.2 °C 1010.4 hPa NO 4.3 km/h 8 km/h 68.8% 0.0 mm
10:34 17.1 °C 11.1 °C 1010.5 hPa NO 3.2 km/h 9.5 km/h 68% 0.0 mm
10:39 17.2 °C 11.2 °C 1010.5 hPa ONO 3.8 km/h 9.7 km/h 68% 0.0 mm
10:44 17.3 °C 11.3 °C 1010.5 hPa ONO 4.6 km/h 8 km/h 68% 0.0 mm
10:49 17.3 °C 11.3 °C 1010.5 hPa NO 4.4 km/h 8 km/h 67.7% 0.0 mm
10:54 17.5 °C 11.3 °C 1010.5 hPa ONO 3.9 km/h 8 km/h 67% 0.0 mm
10:59 17.8 °C 11.5 °C 1010.5 hPa Oeste 3.1 km/h 7.6 km/h 66.7% 0.0 mm
11:04 18 °C 11.3 °C 1010.6 hPa Oeste 2.2 km/h 8 km/h 65.1% 0.0 mm
11:09 18.1 °C 11.4 °C 1010.6 hPa Oeste 2.6 km/h 8 km/h 65% 0.0 mm
11:14 18.3 °C 11.5 °C 1010.6 hPa Oeste 3.2 km/h 8 km/h 64.8% 0.0 mm
11:19 18.6 °C 11.6 °C 1010.8 hPa ONO 3.1 km/h 7.4 km/h 64.1% 0.0 mm
11:24 18.9 °C 11.8 °C 1010.8 hPa NNO 2.9 km/h 8 km/h 63.4% 0.0 mm
11:29 19.2 °C 11.9 °C 1010.8 hPa OSO 3 km/h 17.2 km/h 62.8% 0.0 mm
11:34 19.4 °C 11.8 °C 1010.8 hPa SSE 3.2 km/h 18.5 km/h 61.2% 0.0 mm
11:39 19.7 °C 11.9 °C 1010.7 hPa SSE 5.6 km/h 19.3 km/h 60.7% 0.0 mm
11:44 19.7 °C 11.7 °C 1010.7 hPa Sur 9.5 km/h 16.1 km/h 59.9% 0.0 mm
11:49 19.8 °C 11.7 °C 1010.7 hPa SSE 8.8 km/h 14.5 km/h 59.4% 0.0 mm
11:54 20.1 °C 11.9 °C 1010.6 hPa Sur 7.6 km/h 12.9 km/h 59% 0.0 mm
11:59 20.3 °C 11.9 °C 1010.6 hPa SSO 5.5 km/h 8 km/h 58.3% 0.0 mm
12:04 20.5 °C 12.2 °C 1010.8 hPa North 3.2 km/h 13 km/h 58.8% 0.0 mm
12:09 20.4 °C 12.4 °C 1010.8 hPa NNO 4.1 km/h 13 km/h 59.9% 0.0 mm
12:14 20.4 °C 12.3 °C 1010.8 hPa NO 5.8 km/h 11.3 km/h 59.5% 0.0 mm
12:19 20.4 °C 11.6 °C 1010.8 hPa Oeste 5.8 km/h 11.3 km/h 56.9% 0.0 mm
12:24 20.4 °C 11.5 °C 1010.8 hPa ONO 5.8 km/h 11.3 km/h 56.6% 0.0 mm
12:29 20.7 °C 11.4 °C 1010.8 hPa ONO 5.1 km/h 9.7 km/h 55.3% 0.0 mm
12:34 20.8 °C 11.3 °C 1010.8 hPa Oeste 3.9 km/h 11.1 km/h 54.4% 0.0 mm
12:39 20.9 °C 10.9 °C 1010.7 hPa OSO 4.6 km/h 11.3 km/h 52.6% 0.0 mm
12:44 21 °C 11 °C 1010.7 hPa NO 5.8 km/h 11.3 km/h 52.8% 0.0 mm
12:49 21.2 °C 11 °C 1010.7 hPa Oeste 5.4 km/h 13 km/h 52.1% 0.0 mm
12:54 21.3 °C 11 °C 1010.7 hPa Oeste 4.7 km/h 12.9 km/h 51.7% 0.0 mm
12:59 21.5 °C 11.2 °C 1010.7 hPa SSO 3.8 km/h 8 km/h 51.7% 0.0 mm
13:04 21.9 °C 11.3 °C 1010.7 hPa Este 2.9 km/h 8 km/h 51.2% 0.0 mm
13:09 22.2 °C 11.4 °C 1010.7 hPa ESE 3 km/h 10 km/h 50.6% 0.0 mm
13:14 22.3 °C 11.3 °C 1010.7 hPa SO 3.2 km/h 10 km/h 50% 0.0 mm
13:19 22.3 °C 11.5 °C 1010.7 hPa SO 3.9 km/h 20.1 km/h 50.4% 0.0 mm
13:24 22.2 °C 11.7 °C 1010.5 hPa SSO 5 km/h 20.9 km/h 51.6% 0.0 mm
13:29 22 °C 11.7 °C 1010.5 hPa SSO 6.3 km/h 20.9 km/h 52.2% 0.0 mm
13:34 22.1 °C 12 °C 1010.5 hPa SO 8.7 km/h 11.3 km/h 52.8% 0.0 mm
13:39 22.3 °C 11.9 °C 1010.5 hPa ENE 6.6 km/h 10 km/h 52.1% 0.0 mm
13:44 22.4 °C 12.2 °C 1010.5 hPa SSO 3.2 km/h 18.3 km/h 52.5% 0.0 mm
13:49 22.5 °C 12.2 °C 1010.5 hPa SO 4.8 km/h 20.9 km/h 52.3% 0.0 mm
13:54 22.4 °C 12.2 °C 1010.5 hPa SO 7.6 km/h 20.9 km/h 52.7% 0.0 mm
13:59 22.3 °C 12.2 °C 1010.5 hPa SO 9.8 km/h 22.5 km/h 52.9% 0.0 mm
14:04 22.2 °C 12.4 °C 1010.5 hPa SO 12.2 km/h 22.5 km/h 53.7% 0.0 mm
14:09 22.3 °C 12.6 °C 1010.5 hPa Oeste 11.8 km/h 25.6 km/h 53.9% 0.0 mm
14:14 22.3 °C 12.7 °C 1010.5 hPa Oeste 11.1 km/h 28.2 km/h 54.5% 0.0 mm
14:19 22 °C 12.7 °C 1010.6 hPa Oeste 12.1 km/h 27.4 km/h 55.6% 0.0 mm
14:24 21.9 °C 12.4 °C 1010.6 hPa NO 13.7 km/h 25.6 km/h 54.7% 0.0 mm
14:29 21.9 °C 11.8 °C 1010.6 hPa ONO 14.4 km/h 31.5 km/h 52.6% 0.0 mm
14:34 21.4 °C 12 °C 1010.9 hPa ONO 15.6 km/h 35.2 km/h 55.2% 0.0 mm
14:39 20.9 °C 12.3 °C 1010.9 hPa ONO 17.9 km/h 37 km/h 57.8% 0.0 mm
14:44 20.6 °C 12.2 °C 1010.9 hPa NO 21.7 km/h 33.8 km/h 58.5% 0.0 mm
14:49 20.6 °C 12.4 °C 1010.9 hPa NO 20.8 km/h 31.5 km/h 59.6% 0.0 mm
14:54 20.6 °C 12.4 °C 1010.9 hPa ONO 19 km/h 32.2 km/h 59.5% 0.0 mm
14:59 20.3 °C 12.3 °C 1010.9 hPa ONO 18.7 km/h 32.2 km/h 60% 0.0 mm
15:04 20.3 °C 12.3 °C 1011.0 hPa ONO 18.4 km/h 27.8 km/h 60% 0.0 mm
15:09 20.3 °C 12 °C 1011.0 hPa ONO 17.6 km/h 27.8 km/h 59% 0.0 mm
15:14 20.3 °C 12 °C 1011.0 hPa NO 16.1 km/h 25.9 km/h 59% 0.0 mm
15:19 20.3 °C 12 °C 1011.3 hPa NO 15.2 km/h 26.2 km/h 59% 0.0 mm
15:24 20.4 °C 11.9 °C 1011.3 hPa NO 13.7 km/h 25.7 km/h 58.3% 0.0 mm
15:29 20.6 °C 11.9 °C 1011.3 hPa NO 12.7 km/h 24.1 km/h 57.4% 0.0 mm
15:34 20.8 °C 11.7 °C 1011.3 hPa NO 11.1 km/h 22.5 km/h 56.1% 0.0 mm
15:39 21.1 °C 11.7 °C 1011.2 hPa NNO 11.4 km/h 19.3 km/h 54.8% 0.0 mm
15:44 21.3 °C 11.6 °C 1011.2 hPa NO 11.9 km/h 20.4 km/h 53.9% 0.0 mm
15:49 21.4 °C 11.5 °C 1011.2 hPa NO 11.9 km/h 20.9 km/h 53.2% 0.0 mm
15:54 21.6 °C 11.3 °C 1011.0 hPa NNO 11.9 km/h 19.3 km/h 52.2% 0.0 mm
15:59 21.7 °C 11 °C 1011.0 hPa NO 10.3 km/h 16.1 km/h 51% 0.0 mm
16:04 21.8 °C 11.2 °C 1011.0 hPa OSO 8.4 km/h 13 km/h 51% 0.0 mm
16:09 21.9 °C 11.2 °C 1011.0 hPa OSO 7.7 km/h 18 km/h 50.7% 0.0 mm
16:14 22 °C 11.1 °C 1011.0 hPa ONO 6.5 km/h 19.3 km/h 50.2% 0.0 mm
16:19 21.8 °C 11 °C 1011.0 hPa NO 8.5 km/h 24.1 km/h 50.3% 0.0 mm
16:24 21.8 °C 10.9 °C 1011.0 hPa ONO 12.2 km/h 24.1 km/h 50% 0.0 mm
16:29 21.8 °C 11.1 °C 1011.0 hPa ONO 12.5 km/h 20.9 km/h 50.6% 0.0 mm
16:34 21.9 °C 11.1 °C 1011.0 hPa Oeste 13 km/h 20.9 km/h 50.2% 0.0 mm
16:39 22.1 °C 11.2 °C 1010.9 hPa NO 10.3 km/h 16.1 km/h 50% 0.0 mm
16:44 22.3 °C 11.2 °C 1010.9 hPa Oeste 5.8 km/h 14.8 km/h 49.6% 0.0 mm
16:49 22.3 °C 11.1 °C 1010.9 hPa Oeste 6.4 km/h 14.8 km/h 49.1% 0.0 mm
16:54 22.4 °C 11.2 °C 1010.8 hPa Oeste 7.6 km/h 14.8 km/h 49% 0.0 mm
16:59 22.5 °C 11.2 °C 1010.8 hPa ONO 7.3 km/h 14.5 km/h 48.8% 0.0 mm
17:04 22.7 °C 11.3 °C 1010.8 hPa OSO 6.9 km/h 14 km/h 48.6% 0.0 mm
17:09 22.9 °C 11.3 °C 1010.7 hPa SO 7.6 km/h 14.8 km/h 47.9% 0.0 mm
17:14 23.2 °C 11.2 °C 1010.7 hPa Sur 8.7 km/h 14.5 km/h 47% 0.0 mm
17:19 23.2 °C 11 °C 1010.7 hPa Oeste 8.1 km/h 14.8 km/h 46.3% 0.0 mm
17:24 23.2 °C 11 °C 1010.7 hPa Oeste 6.9 km/h 14.5 km/h 46.2% 0.0 mm
17:29 23.3 °C 11.1 °C 1010.7 hPa SE 6.8 km/h 13 km/h 46.3% 0.0 mm
17:34 23.4 °C 11.1 °C 1010.7 hPa Sur 6.5 km/h 13.7 km/h 46.2% 0.0 mm
17:39 23.5 °C 11.2 °C 1010.6 hPa Sur 6.9 km/h 14.5 km/h 45.9% 0.0 mm
17:44 23.4 °C 11.1 °C 1010.6 hPa SSO 7.6 km/h 13 km/h 46% 0.0 mm
17:49 23.5 °C 11.1 °C 1010.7 hPa OSO 7.6 km/h 14 km/h 45.7% 0.0 mm
17:54 23.6 °C 10.6 °C 1010.7 hPa OSO 7.6 km/h 14.8 km/h 44% 0.0 mm
17:59 23.7 °C 10.7 °C 1010.7 hPa Oeste 7 km/h 14.5 km/h 44% 0.0 mm
18:04 23.6 °C 10.7 °C 1010.9 hPa NNO 6.5 km/h 13 km/h 44.1% 0.0 mm
18:09 23.6 °C 10.5 °C 1010.9 hPa NNO 6.2 km/h 12.9 km/h 43.8% 0.0 mm
18:14 23.5 °C 10.3 °C 1010.9 hPa NNE 5.8 km/h 11.9 km/h 43.2% 0.0 mm
18:19 23.6 °C 10.1 °C 1011.1 hPa ONO 6 km/h 11.3 km/h 42.3% 0.0 mm
18:24 23.7 °C 10.1 °C 1011.1 hPa Oeste 6.5 km/h 11.9 km/h 42.3% 0.0 mm
18:29 23.6 °C 9.5 °C 1011.1 hPa SSE 6.2 km/h 30.6 km/h 40.9% 0.0 mm
18:34 23.6 °C 9.3 °C 1011.1 hPa Oeste 5.8 km/h 30.6 km/h 40.2% 0.0 mm
18:39 23.7 °C 8.1 °C 1011.1 hPa OSO 8.7 km/h 29.8 km/h 36.8% 0.0 mm
18:44 23.9 °C 7.6 °C 1011.1 hPa SO 13.7 km/h 30.6 km/h 35.3% 0.0 mm
18:49 23.9 °C 7.1 °C 1011.1 hPa OSO 14.6 km/h 31.7 km/h 34.1% 0.0 mm
18:54 24 °C 6.7 °C 1011.1 hPa SO 16.4 km/h 32.2 km/h 32.9% 0.0 mm
18:59 23.9 °C 6.7 °C 1011.1 hPa SO 16.4 km/h 29 km/h 33% 0.0 mm
19:04 23.9 °C 7 °C 1011.2 hPa OSO 16.4 km/h 27.4 km/h 33.8% 0.0 mm
19:09 23.9 °C 7.1 °C 1011.2 hPa OSO 14.8 km/h 20.9 km/h 34% 0.0 mm
19:14 23.8 °C 7 °C 1011.2 hPa OSO 11.9 km/h 22.2 km/h 34% 0.0 mm
19:19 23.7 °C 7 °C 1011.3 hPa Oeste 12.5 km/h 34.3 km/h 34.1% 0.0 mm
19:24 23.5 °C 7.3 °C 1011.3 hPa Oeste 13.7 km/h 33.8 km/h 35.3% 0.0 mm
19:29 23.3 °C 7.3 °C 1011.3 hPa Oeste 14.1 km/h 24.1 km/h 36% 0.0 mm
19:34 23.1 °C 7.4 °C 1011.5 hPa Oeste 14.8 km/h 19.3 km/h 36.5% 0.0 mm
19:39 23.1 °C 7.6 °C 1011.5 hPa ONO 12.1 km/h 16.4 km/h 36.9% 0.0 mm
19:44 23.2 °C 7.6 °C 1011.5 hPa Oeste 7.6 km/h 16.7 km/h 36.8% 0.0 mm
19:49 23.3 °C 7.6 °C 1011.7 hPa OSO 7.9 km/h 14.8 km/h 36.4% 0.0 mm
19:54 23.6 °C 7.4 °C 1011.7 hPa OSO 8.4 km/h 26.2 km/h 35.5% 0.0 mm
19:59 23.6 °C 6.9 °C 1011.7 hPa OSO 10 km/h 26.2 km/h 34.1% 0.0 mm
20:04 23.4 °C 6.7 °C 1011.9 hPa Oeste 11.9 km/h 25.7 km/h 34.1% 0.0 mm
20:09 23.4 °C 6.6 °C 1011.9 hPa Oeste 12.5 km/h 30.9 km/h 34% 0.0 mm
20:14 23.1 °C 5.9 °C 1011.9 hPa Oeste 13.7 km/h 33.8 km/h 33% 0.0 mm
20:19 22.9 °C 5.8 °C 1012.3 hPa OSO 15.6 km/h 33.8 km/h 33% 0.0 mm
20:24 22.8 °C 5.7 °C 1012.3 hPa Oeste 19 km/h 30.6 km/h 33% 0.0 mm
20:29 22.7 °C 5.8 °C 1012.3 hPa Oeste 17.5 km/h 25.7 km/h 33.4% 0.0 mm
20:34 22.2 °C 6.5 °C 1012.8 hPa NO 14.8 km/h 34.3 km/h 36% 0.0 mm
20:39 21.1 °C 6.9 °C 1012.8 hPa NO 15.6 km/h 42 km/h 39.9% 0.0 mm
20:44 20 °C 7 °C 1012.8 hPa ONO 17.2 km/h 42.6 km/h 42.9% 0.0 mm
20:49 19.6 °C 7.1 °C 1013.3 hPa NO 18.5 km/h 37 km/h 44.3% 0.0 mm
20:54 19.3 °C 7.1 °C 1013.3 hPa ONO 20.9 km/h 33.5 km/h 45% 0.0 mm
20:59 19.3 °C 7.1 °C 1013.3 hPa NO 19.8 km/h 33.8 km/h 45% 0.0 mm
21:04 19.2 °C 6.9 °C 1013.8 hPa NO 18.4 km/h 27.4 km/h 45% 0.0 mm
21:09 19.1 °C 7.2 °C 1013.8 hPa ONO 18 km/h 27.4 km/h 45.8% 0.0 mm
21:14 18.9 °C 7.3 °C 1013.8 hPa ONO 17.2 km/h 27.8 km/h 46.6% 0.0 mm
21:19 18.8 °C 7.2 °C 1013.9 hPa ONO 16.4 km/h 24.5 km/h 47% 0.0 mm
21:24 18.7 °C 7.2 °C 1013.9 hPa ONO 14.8 km/h 24.1 km/h 47% 0.0 mm
21:29 18.7 °C 7.4 °C 1013.9 hPa ONO 14.8 km/h 24.1 km/h 47.9% 0.0 mm
21:34 18.6 °C 7.4 °C 1014.1 hPa ONO 14.8 km/h 20.9 km/h 48% 0.0 mm
21:39 18.6 °C 7.3 °C 1014.1 hPa ONO 14.2 km/h 20.9 km/h 48% 0.0 mm
21:44 18.5 °C 7.3 °C 1014.1 hPa ONO 13 km/h 27.8 km/h 48% 0.0 mm
21:49 18.6 °C 7.1 °C 1014.6 hPa ONO 14.2 km/h 32.8 km/h 47.1% 0.0 mm
21:54 18.6 °C 7.1 °C 1014.6 hPa ONO 16.1 km/h 33.8 km/h 47% 0.0 mm
21:59 18.6 °C 7.1 °C 1014.6 hPa NO 17.8 km/h 36.2 km/h 47.1% 0.0 mm
22:04 18.3 °C 7.1 °C 1015.0 hPa ONO 19.8 km/h 44.4 km/h 48% 0.0 mm
22:09 18.2 °C 7.1 °C 1015.0 hPa ONO 21.5 km/h 45.1 km/h 48.4% 0.0 mm
22:14 18 °C 7.1 °C 1015.0 hPa NO 24.5 km/h 43.1 km/h 49% 0.0 mm
22:19 17.8 °C 7 °C 1015.3 hPa ONO 24.5 km/h 43.5 km/h 49% 0.0 mm
22:24 17.8 °C 6.9 °C 1015.3 hPa ONO 24.5 km/h 41.2 km/h 49% 0.0 mm
22:29 17.7 °C 6.9 °C 1015.3 hPa ONO 24 km/h 41.8 km/h 49.1% 0.0 mm
22:34 17.6 °C 7.1 °C 1015.7 hPa ONO 23.3 km/h 38.9 km/h 50% 0.0 mm
22:39 17.5 °C 6.9 °C 1015.7 hPa ONO 22.4 km/h 40.7 km/h 50% 0.0 mm
22:44 17.4 °C 6.9 °C 1015.7 hPa ONO 20.9 km/h 40.2 km/h 50% 0.0 mm
22:49 17.4 °C 6.9 °C 1015.9 hPa ONO 20 km/h 39.6 km/h 50% 0.0 mm
22:54 17.3 °C 6.8 °C 1015.9 hPa ONO 18.4 km/h 40.2 km/h 50% 0.0 mm
22:59 17.3 °C 6.9 °C 1015.9 hPa ONO 19.5 km/h 37.8 km/h 50.7% 0.0 mm
23:04 17.2 °C 6.9 °C 1016.3 hPa Oeste 20.9 km/h 37 km/h 51% 0.0 mm
23:09 17 °C 7.1 °C 1016.3 hPa Oeste 20.5 km/h 35.4 km/h 51.9% 0.0 mm
23:14 16.9 °C 7 °C 1016.3 hPa ONO 19.8 km/h 33.3 km/h 52% 0.0 mm
23:19 16.9 °C 7 °C 1016.6 hPa ONO 18.9 km/h 33.8 km/h 52% 0.0 mm
23:24 16.9 °C 7 °C 1016.6 hPa ONO 17.2 km/h 33.3 km/h 52% 0.0 mm
23:29 16.9 °C 7 °C 1016.6 hPa Oeste 17.9 km/h 33.8 km/h 52% 0.0 mm
23:34 16.9 °C 7 °C 1016.8 hPa Oeste 19 km/h 29 km/h 52% 0.0 mm
23:39 16.8 °C 6.9 °C 1016.8 hPa Oeste 17.1 km/h 22.5 km/h 52% 0.0 mm
23:44 16.7 °C 6.9 °C 1016.8 hPa ONO 13.7 km/h 20.4 km/h 52.1% 0.0 mm
23:49 16.7 °C 6.8 °C 1016.9 hPa ONO 13.1 km/h 20.9 km/h 52.2% 0.0 mm
23:54 16.7 °C 7.1 °C 1016.9 hPa ONO 12.2 km/h 20.9 km/h 53% 0.0 mm
23:59 16.7 °C 7.1 °C 1016.9 hPa ONO 10.6 km/h 14.5 km/h 53% 0.0 mm
Murcia-Puente Tocinos, España
Compliments of Weather Underground - 3 mb

La estación de MeteoMurcia.com, publica sus datos en los siguientes proyectos:

Weather Underground PWS IMURCIAP2 Meteoclimatic www.awekas.at

W3Counter
Web Analytics